Regional Weather Roundup
Issued by NWS Northern Indiana

Home | Current Version | Previous Version | Text Only | Print | Product List | Glossary On
Versions: 1 2 3 4 5 6 7 8 9 10 11 12 13 14 15 16 17 18 19 20 21 22 23 24 25 26 27 28 29 30 31 32 33 34 35 36 37 38 39 40 41 42 43 44 45 46 47 48 49 50
000
ASUS43 KIWX 230300
RWRIWX

KIWX WEATHER ROUNDUP
NATIONAL WEATHER SERVICE NORTHERN INDIANA
1100 PM EDT WED OCT 22 2014

NOTE: "FAIR" INDICATES FEW OR NO CLOUDS BELOW 12,000 FEET WITH NO
SIGNIFICANT WEATHER AND/OR OBSTRUCTIONS TO VISIBILITY.

* THESE STATIONS ARE NOT UNDER NWS QUALITY CONTROL. THEY ALSO MAY NOT
  REPORT WEATHER SUCH AS PRECIPITATION OR FOG.

INZ001>027-230400-
NORTHERN INDIANA

CITY           SKY/WX    TMP DP  RH WIND       PRES   REMARKS
GARY*          CLEAR     43  39  87 SE8       30.28
SOUTH BEND     CLEAR     39  36  89 CALM      30.30R
GOSHEN         CLEAR     39  36  89 E3        30.29R
ANGOLA*        CLEAR     36  21  55 CALM      30.28F
FORT WAYNE     CLEAR     38  35  89 CALM      30.30S
PERU/GRISSOM   CLEAR     43  43 100 E5        30.28R

$$
INZ028>050-230400-
CENTRAL INDIANA

CITY           SKY/WX    TMP DP  RH WIND       PRES   REMARKS
LAFAYETTE      CLEAR     41  38  89 CALM      30.27R
KOKOMO*        CLEAR     39  36  87 E6        30.28S
MUNCIE*        CLEAR     40  37  89 SE5       30.27S
INDIANAPOLIS   CLEAR     47  40  76 E7        30.25S

$$
MIZ043>046-050>051-056>058-064>065-071>073-077>080-230400-
SOUTHWEST LOWER MICHIGAN

CITY           SKY/WX    TMP DP  RH WIND       PRES   REMARKS
BATTLE CREEK   CLEAR     37  32  82 CALM      30.29S
BENTON HARBOR  CLEAR     34  34 100 E3        30.29R FOG
COLDWATER*     CLEAR     35  35  97 CALM      30.29R FOG
HILLSDALE*     CLEAR     34  33  99 CALM      30.28R
HOLLAND        CLEAR     39  35  86 E3        30.30S
GRAND RAPIDS   CLEAR     38  35  89 CALM      30.30S
KALAMAZOO      CLEAR     36  33  89 CALM      30.29F
STURGIS*       CLEAR     34  34 100 CALM      30.28S FOG
THREE RIVERS*  FAIR      36  34  94 CALM      30.30S FOG

$$
OHZ001>008-015>018-024>025-230400-
NORTHWEST OHIO

CITY           SKY/WX    TMP DP  RH WIND       PRES   REMARKS
DEFIANCE       CLEAR     36  34  92 CALM      30.28F
FINDLAY        CLOUDY    46  40  79 W6        30.26F
TOLEDO EXPRESS CLEAR     42  38  85 CALM      30.27F
TOLEDO METCALF MOCLDY    48  40  73 N3        30.27F
LIMA           CLOUDY    43  39  86 CALM      30.27F

$$
AND FOR LAKE MICHIGAN COASTAL AND OPEN LAKE BUOY OBSERVATIONS

STATION/POSITION TEMP    WIND        PRES    VSBY  WAVE
                 AIR SEA DIR/SP/G                  HT/PER
                 (F)     (DEG/KT/KT) (MB)    (MI)  (FT/S)
CALUMET HARBOR    51     100/  5/  8 1023.7S
MICHIGAN CITY     45      60/  6/  6   N/A
SAINT JOSEPH      43                 1025.4F
SOUTH LAKE BUOY   49 54  100/  8/ 10 1025.6F         1

$$
&&



USA.gov is the U.S. government's official web portal to all federal, state and local government web resources and services.